Tracking 20369 objects as of 19-Feb-2020
HD Live streaming from Space Station
objects crossing your sky now

ARIANE 5 R/B

Track ARIANE 5 R/B now!
10-day predictions


NORAD ID: 36034
Int'l Code: 2009-058C
Perigee: 258.6 km
Apogee: 24,606.6 km
Inclination: 6.1 °
Period: 427.7 minutes
Semi major axis: 18803 km
RCS: 21.239 m2 (large)
Launch date: October 29, 2009
Source: France (FR)
Launch site: FRENCH GUIANA (FRGUI)

Note: This is a ROCKET BODY
aabbcc
Your satellite tracking list
Your tracking list is empty




NASA's NSSDC Master Catalog

Two Line Element Set (TLE):
1 36034U 09058C   20049.22943121 +.00001028 +00000-0 +14327-3 0  9998
2 36034 006.1468 233.0575 6474297 002.6225 359.5531 03.36699494108096
Source of the keplerian elements: AFSPC